St. Joseph, KS

2:18 AM CST on December 13, 2019 (GMT -0600)
Rosecrans Memorial

Weather History for KSTJ - October, 2019

Change the Weather History Date:

Sunday, October 13, 2019

  Actual Average Record
Temperature  
Mean Temperature 49 °F 56 °F  
Max Temperature 66 °F 68 °F 90 °F (1975)
Min Temperature 32 °F 44 °F 24 °F (2006)
Degree Days  
Heating Degree Days 16 10  
Month to date heating degree days 117 105  
Since 1 July heating degree days 122 185  
Cooling Degree Days 0 1  
Month to date cooling degree days 17 18  
Year to date cooling degree days 1466 1217  
Moisture  
Dew Point 31 °F    
Average Humidity 57    
Maximum Humidity 92    
Minimum Humidity 22    
Precipitation  
Precipitation 0.00 in 0.10 in 1.94 in (1981)
Month to date precipitation 2.35 1.20  
Year to date precipitation 35.95 30.92  
Sea Level Pressure  
Sea Level Pressure 29.97 in    
Wind  
Wind Speed 3 mph (WNW)    
Max Wind Speed 15 mph    
Max Gust Speed 21 mph    
Visibility 10 miles    
Events      
T = Trace of Precipitation, MM = Missing Value Source: NWS Daily Summary

Daily Weather History Graph

Daily Weather History Graph

Search for Another Location

Airport or City:

Astronomy

Oct. 13, 2019 Rise Set
Actual Time 7:27 AM CDT 6:43 PM CDT
Civil Twilight 7:00 AM CDT 7:10 PM CDT
Nautical Twilight 6:29 AM CDT 7:41 PM CDT
Astronomical Twilight 5:57 AM CDT 8:13 PM CDT
Moon 7:06 PM CDT 7:02 AM CDT
Length of Visible Light 12h 10m
Length of Day
11h 15m
Full, 100% of the Moon is Illuminated
Oct 13
Full
Oct 13
Full
Oct 21
Last Quarter
Oct 27
New
Nov 4
First Quarter

Hourly Weather History & Observations

Time (CDT) Temp. Windchill Dew Point Humidity Pressure Visibility Wind Dir Wind Speed Gust Speed Precip Events Conditions
12:53 AM 39.0 °F - 36.0 °F 89% 29.91 in 10.0 mi Calm Calm - N/A   Clear
1:53 AM 39.0 °F 35.7 °F 37.0 °F 93% 29.92 in 10.0 mi SSW 4.6 mph - N/A   Clear
2:53 AM 37.9 °F - 35.1 °F 89% 29.93 in 10.0 mi Calm Calm - N/A   Clear
3:53 AM 35.1 °F - 32.0 °F 89% 29.93 in 10.0 mi Calm Calm - N/A   Clear
4:53 AM 35.1 °F - 30.9 °F 85% 29.94 in 10.0 mi Calm Calm - N/A   Clear
5:53 AM 33.1 °F - 30.0 °F 89% 29.95 in 10.0 mi Calm Calm - N/A   Clear
6:53 AM 32.0 °F - 30.0 °F 92% 29.97 in 10.0 mi Calm Calm - N/A   Clear
7:53 AM 33.1 °F - 30.9 °F 92% 29.97 in 10.0 mi Calm Calm - N/A   Clear
8:53 AM 39.9 °F - 35.1 °F 83% 29.99 in 10.0 mi Calm Calm - N/A   Clear
9:53 AM 46.9 °F - 36.0 °F 66% 30.00 in 10.0 mi SSW 3.5 mph - N/A   Clear
10:53 AM 52.0 °F - 33.1 °F 49% 30.01 in 10.0 mi Calm Calm - N/A   Clear
11:53 AM 55.9 °F - 24.1 °F 29% 30.00 in 10.0 mi NNW 11.5 mph 17.3 mph N/A   Clear
12:53 PM 57.9 °F - 21.0 °F 24% 29.99 in 10.0 mi NNW 10.4 mph 20.7 mph N/A   Clear
1:53 PM 62.1 °F - 26.1 °F 25% 29.97 in 9.0 mi WNW 8.1 mph - N/A   Clear
2:53 PM 64.0 °F - 25.0 °F 23% 29.95 in 10.0 mi WNW 9.2 mph - N/A   Clear
3:53 PM 66.0 °F - 27.0 °F 23% 29.94 in 10.0 mi NW 11.5 mph - N/A   Clear
4:53 PM 64.9 °F - 27.0 °F 24% 29.94 in 9.0 mi North - - N/A   Clear
5:53 PM 63.0 °F - 28.0 °F 27% 29.95 in 7.0 mi WNW 6.9 mph - N/A   Clear
6:53 PM 51.1 °F - 33.1 °F 50% 29.96 in 10.0 mi NW 3.5 mph - N/A   Clear
7:53 PM 45.0 °F - 36.0 °F 71% 29.99 in 10.0 mi Calm Calm - N/A   Clear
8:53 PM 45.0 °F - 37.9 °F 76% 30.00 in 10.0 mi Calm Calm - N/A   Clear
9:53 PM 39.9 °F - 36.0 °F 86% 30.01 in 10.0 mi Calm Calm - N/A   Clear
10:53 PM 37.9 °F - 35.1 °F 89% 30.03 in 8.0 mi Calm Calm - N/A   Clear
11:53 PM 36.0 °F - 33.1 °F 89% 30.02 in 10.0 mi Calm Calm - N/A   Clear